STARLINK-32459, 61715

Orbit data source: Space-Track

STARLINK-32459, 61715 is a payload satellite owned by SpaceX/Seattle (US) in LEO that was launched on Wed, 30 Oct 2024 UTC via an FALCON 9 launch vehicle from the Air Force Eastern Test Range (AFETR). Payload-class satellites include a variety of spacecraft equipped with specific instruments for various scientific and technological missions. These include communications satellites like Starlink; space stations such as the ISS; scientific satellites like the Hubble; Earth observation satellites from companies like Planet Labs, Umbra, and HawkEye 360; GPS; miniature CubeSats for education and research; and military/defense satellites.

Loading next visibility...
Identifier
61715, 2024-196J
Orbit
LEO
Last TLE update
13 hours ago
Origin
Manufacturer
SpaceX/Seattle
Mission
Operational Commercial Communications
Bus & Motor
STARLINK V2M, Unknown motor
Mass
730 kg wet, ~700 kg dry
Launch date (UTC)
2024-10-30 (9 months ago)
Launch vehicle
FALCON 9
Launch site
Air Force Eastern Test Range (AFETR)
Object type
Payload
Rocket body
Debris
Shape & HBR
Box + 2 Pan, 14.5 m
Radar Cross Section
36.964 m², Large (>1 m²)

Expand to show TLE details & history

TLE from 13 hours ago
0 STARLINK-32459
1 61715U 24196J   25199.44143924 -.00000214  00000-0  49090-5 0  9994
2 61715  53.1604 109.2949 0001195  94.5870 265.5267 15.30190470 41293
Epoch: 2025-07-18T10:35Z
TLE epoch observation values (Epoch: 2025-07-18T10:35:40.35Z)
Latitude
-0.00004°
Longitude
13.8839°
Altitude
476.207 km
Speed
7.629 km/s
True Right ascension
07h 17m 10s
True Declination
0° 00' 00"
Sunlit
Object was in daylight at epoch
Visualization orbit readout
Latitude
49.1064°
Longitude
132.01553°
Altitude
480.062 km
Speed
7.632 km/s
Apparent Right ascension
20h 12m 49s
Apparent Declination
18° 05' 16"
Sunlit
Object is in daylight
Visualization observer readout
Local Sidereal Time
12:24:19
Azimuth
58.61° ENE
Elevation
-7.654°
Doppler factor
1
Orbital elements
Apogee altitude
476.319 km
Perigee altitude
474.681 km
Semi-major axis
6,853.637 km
Eccentricity
0.00012
Inclination
53.1604°
RAAN
109.2949°
Arg. of periapsis
94.587°
True anomaly
265.51305°
Mean anomaly
265.5267°
Eccentric anomaly
265.51987°
Mean motion
3.82527 °/min
Orbital period
94.11 mins
BSTAR
0.000004909
Loading maneuver chart data...
Loading SW <> Apogee altitude chart data...
Loading historical data...
Loading historical data...
Loading historical data...
Loading historical data...
Loading historical data...
Loading historical data...
Loading historical data...
|